EW1867 Weather Reports


Display with metric or nautical units.
time (UTC)temp
F
wind
direction
speed
MPH
gust
MPH
rain 1hr
in
rain 24hr
in
rain mn
in
humidity
%
barometer
mb
20240622220501 103 227 2.0 5.0 0.00 0.00 0.00 29 1007.0
20240622215600 103 236 1.0 4.0 0.00 0.00 0.00 28 1006.9
20240622214701 103 225 2.0 4.0 0.00 0.00 0.00 29 1007.1
20240622213800 102 227 2.0 4.0 0.00 0.00 0.00 29 1007.1
20240622212000 99 63 1.0 4.0 0.00 0.00 0.00 31 1007.2
20240622211100 100 68 1.0 3.0 0.00 0.00 0.00 29 1007.3
20240622205300 101 208 1.0 3.0 0.00 0.00 0.00 29 1007.4
20240622204401 99 224 1.0 3.0 0.00 0.00 0.00 31 1007.5
20240622202600 98 78 1.0 3.0 0.00 0.00 0.00 33 1007.8
20240622201700 98 112 1.0 4.0 0.00 0.00 0.00 33 1007.8
20240622200800 98 186 1.0 4.0 0.00 0.00 0.00 32 1007.8
20240622195900 98 253 1.0 3.0 0.00 0.00 0.00 33 1007.9
20240622195000 96 58 1.0 3.0 0.00 0.00 0.00 34 1007.9
20240622194102 95 221 1.0 4.0 0.00 0.00 0.00 35 1008.0
20240622193200 94 53 1.0 4.0 0.00 0.00 0.00 36 1008.1
20240622192300 94 76 1.0 5.0 0.00 0.00 0.00 36 1008.2
20240622191400 95 94 1.0 3.0 0.00 0.00 0.00 35 1008.2
20240622190501 94 229 1.0 3.0 0.00 0.00 0.00 36 1008.2
20240622185601 95 224 1.0 5.0 0.00 0.00 0.00 36 1008.1
20240622184700 94 244 1.0 4.0 0.00 0.00 0.00 36 1008.2
20240622183800 93 307 1.0 2.0 0.00 0.00 0.00 38 1008.3
20240622182901 93 220 1.0 4.0 0.00 0.00 0.00 39 1008.4
20240622182000 92 148 1.0 4.0 0.00 0.00 0.00 39 1008.4
20240622181101 92 199 1.0 4.0 0.00 0.00 0.00 41 1008.3
20240622180201 91 303 1.0 4.0 0.00 0.00 0.00 40 1008.2
20240622175301 92 271 1.0 2.0 0.00 0.00 0.00 40 1008.2
20240622174400 91 227 1.0 3.0 0.00 0.00 0.00 40 1008.2
20240622173501 91 205 0.0 3.0 0.00 0.00 0.00 41 1008.2
20240622172600 90 184 1.0 2.0 0.00 0.00 0.00 43 1008.1
20240622171701 89 240 1.0 3.0 0.00 0.00 0.00 42 1008.1
20240622165900 88 301 0.0 3.0 0.00 0.00 0.00 42 1008.1
20240622163200 85 293 1.0 2.0 0.00 0.00 0.00 45 1008.2
20240622162300 85 312 0.0 2.0 0.00 0.00 0.00 45 1008.2
20240622155600 85 0 0.0 1.0 0.00 0.00 0.00 45 1008.1
20240622154700 84 0 0.0 2.0 0.00 0.00 0.00 46 1008.0
20240622153800 84 0 0.0 1.0 0.00 0.00 0.00 48 1007.8
20240622152900 83 0 0.0 1.0 0.00 0.00 0.00 48 1007.8
20240622152000 81 0 0.0 1.0 0.00 0.00 0.00 50 1007.9
20240622151100 80 0 0.0 1.0 0.00 0.00 0.00 51 1007.7
20240622150201 80 0 0.0 1.0 0.00 0.00 0.00 51 1007.8
20240622144402 77 0 0.0 1.0 0.00 0.00 0.00 57 1007.6
20240622143501 74 0 0.0 1.0 0.00 0.00 0.00 58 1007.7
20240622142601 74 0 0.0 0.0 0.00 0.00 0.00 58 1007.7
20240622141701 71 0 0.0 0.0 0.00 0.00 0.00 64 1007.6
20240622140801 68 0 0.0 0.0 0.00 0.00 0.00 69 1007.6
20240622135901 66 0 0.0 0.0 0.00 0.00 0.00 72 1007.6
20240622135001 65 0 0.0 0.0 0.00 0.00 0.00 74 1007.5
20240622133200 64 0 0.0 0.0 0.00 0.00 0.00 74 1007.5
20240622132300 64 0 0.0 0.0 0.00 0.00 0.00 73 1007.4
20240622131401 64 0 0.0 0.0 0.00 0.00 0.00 72 1007.3
20240622125601 64 0 0.0 0.0 0.00 0.00 0.00 71 1007.1
20240622124701 64 0 0.0 0.0 0.00 0.00 0.00 73 1007.2
20240622123801 64 0 0.0 0.0 0.00 0.00 0.00 72 1007.1
20240622122001 64 0 0.0 1.0 0.00 0.00 0.00 71 1007.1
20240622121100 64 0 0.0 0.0 0.00 0.00 0.00 71 1007.1
20240622120201 65 0 0.0 0.0 0.00 0.00 0.00 70 1007.1
20240622115300 65 0 0.0 0.0 0.00 0.00 0.00 71 1007.1
20240622114400 65 0 0.0 0.0 0.00 0.00 0.00 71 1007.0
20240622113500 64 0 0.0 0.0 0.00 0.00 0.00 72 1007.0
20240622112600 65 0 0.0 0.0 0.00 0.00 0.00 71 1007.0
20240622111701 65 0 0.0 0.0 0.00 0.00 0.00 71 1006.9
20240622105900 65 0 0.0 0.0 0.00 0.00 0.00 70 1006.8
20240622105001 66 0 0.0 0.0 0.00 0.00 0.00 68 1006.9
20240622104101 66 0 0.0 0.0 0.00 0.00 0.00 67 1006.8
20240622103200 66 0 0.0 0.0 0.00 0.00 0.00 68 1006.7
20240622102301 66 0 0.0 0.0 0.00 0.00 0.00 66 1006.8
20240622101401 66 0 0.0 0.0 0.00 0.00 0.00 67 1006.7
20240622100500 66 0 0.0 0.0 0.00 0.00 0.00 66 1006.7
20240622094701 67 0 0.0 0.0 0.00 0.00 0.00 65 1006.7
20240622093801 68 0 0.0 1.0 0.00 0.00 0.00 64 1006.6
20240622092901 68 0 0.0 1.0 0.00 0.00 0.00 64 1006.6
20240622092000 68 0 0.0 1.0 0.00 0.00 0.00 64 1006.6
20240622090200 69 0 0.0 0.0 0.00 0.00 0.00 65 1006.5
20240622085301 69 0 0.0 1.0 0.00 0.00 0.00 63 1006.5
20240622084401 69 0 0.0 1.0 0.00 0.00 0.00 63 1006.5
20240622083500 69 0 0.0 0.0 0.00 0.00 0.00 62 1006.5
20240622082601 70 0 0.0 1.0 0.00 0.00 0.00 62 1006.4
20240622080801 71 0 0.0 1.0 0.00 0.00 0.00 62 1006.3
20240622075901 71 0 0.0 2.0 0.00 0.00 0.00 60 1006.3
20240622073201 72 0 0.0 3.0 0.00 0.00 0.00 59 1006.2
20240622072301 72 0 0.0 1.0 0.00 0.00 0.00 59 1006.1
20240622071401 73 0 0.0 1.0 0.00 0.00 0.00 58 1006.0
20240622065601 73 0 0.0 1.0 0.00 0.00 0.00 57 1006.1
20240622064701 74 0 0.0 0.0 0.00 0.00 0.00 57 1005.9
20240622063801 74 0 0.0 1.0 0.00 0.00 0.00 57 1006.0
20240622062901 74 0 0.0 0.0 0.00 0.00 0.00 58 1006.0
20240622061101 75 0 0.0 1.0 0.00 0.00 0.00 56 1006.0
20240622060201 75 0 0.0 0.0 0.00 0.00 0.00 56 1005.9
20240622055301 75 0 0.0 0.0 0.00 0.00 0.00 58 1005.7
20240622054401 76 0 0.0 0.0 0.00 0.00 0.00 56 1005.8
20240622053501 76 0 0.0 0.0 0.00 0.00 0.00 56 1005.8
20240622052601 77 0 0.0 0.0 0.00 0.00 0.00 56 1005.8
20240622051701 77 0 0.0 0.0 0.00 0.00 0.00 56 1005.7
20240622050801 77 0 0.0 0.0 0.00 0.00 0.00 54 1005.6
20240622045901 78 0 0.0 0.0 0.00 0.00 0.00 53 1005.6
20240622045001 78 0 0.0 0.0 0.00 0.00 0.00 52 1005.4
20240622043201 80 0 0.0 2.0 0.00 0.00 0.00 53 1005.2
20240622041401 81 0 0.0 0.0 0.00 0.00 0.00 51 1005.2
20240622040502 82 0 0.0 0.0 0.00 0.00 0.00 49 1005.1
20240622035601 82 0 0.0 1.0 0.00 0.00 0.00 47 1004.9
20240622034701 83 0 0.0 1.0 0.00 0.00 0.00 46 1004.9
20240622032901 85 229 0.0 1.0 0.00 0.00 0.00 43 1005.0
20240622032001 87 215 0.0 3.0 0.00 0.00 0.00 41 1004.8
20240622031101 87 222 0.0 3.0 0.00 0.00 0.00 39 1004.7
20240622030201 88 193 1.0 2.0 0.00 0.00 0.00 38 1004.7
20240622025301 89 220 1.0 4.0 0.00 0.00 0.00 37 1004.7
20240622024401 90 217 1.0 3.0 0.00 0.00 0.00 37 1004.8
20240622023501 91 209 1.0 4.0 0.00 0.00 0.00 36 1004.7
20240622020801 93 210 1.0 4.0 0.00 0.00 0.00 36 1004.7
20240622015901 92 222 1.0 5.0 0.00 0.00 0.00 36 1004.7
20240622015001 93 213 1.0 4.0 0.00 0.00 0.00 36 1004.7
20240622014101 93 199 1.0 5.0 0.00 0.00 0.00 37 1004.6
20240622012301 94 220 1.0 4.0 0.00 0.00 0.00 34 1004.6
20240622011401 94 229 1.0 4.0 0.00 0.00 0.00 34 1004.5
20240622010501 94 225 1.0 4.0 0.00 0.00 0.00 34 1004.6
20240622005601 95 210 0.0 4.0 0.00 0.00 0.00 34 1004.6
20240622004702 95 215 1.0 3.0 0.00 0.00 0.00 34 1004.6
20240622003801 95 221 1.0 4.0 0.00 0.00 0.00 33 1004.7
20240622002901 95 223 2.0 6.0 0.00 0.00 0.00 32 1004.7
20240622002001 95 225 2.0 6.0 0.00 0.00 0.00 32 1004.7
20240622001101 95 217 1.0 5.0 0.00 0.00 0.00 33 1004.7
20240622000201 95 224 2.0 5.0 0.00 0.00 0.00 33 1004.7
20240621235301 95 232 2.0 5.0 0.00 0.00 0.00 34 1004.8
20240621234401 95 149 1.0 4.0 0.00 0.00 0.00 34 1004.8
20240621233501 95 211 1.0 4.0 0.00 0.00 0.00 33 1005.0
20240621232601 95 227 2.0 5.0 0.00 0.00 0.00 35 1005.2
20240621231702 95 232 1.0 5.0 0.00 0.00 0.00 34 1005.2
20240621225901 94 110 2.0 4.0 0.00 0.00 0.00 34 1005.5
20240621225001 95 193 1.0 6.0 0.00 0.00 0.00 34 1005.6
20240621224101 96 215 1.0 4.0 0.00 0.00 0.00 33 1005.7
20240621223201 95 225 1.0 4.0 0.00 0.00 0.00 34 1005.8
20240621222301 95 226 2.0 4.0 0.00 0.00 0.00 33 1005.7
20240621221401 94 232 1.0 5.0 0.00 0.00 0.00 34 1006.0